Time,TemperatureF,DewpointF,PressureIn,WindDirection,WindDirectionDegrees,WindSpeedMPH,WindSpeedGustMPH,Humidity,HourlyPrecipIn,Conditions,Clouds,dailyrainin,SoftwareType,DateUTC
2013-10-08 00:00:00,51.3,46.9,30.01,West,270,0.4,1.3,85,0.00,,,0.00,WUHU216HW,2013-10-08 07:00:00,
2013-10-08 00:05:00,51.3,46.9,30.01,North,0,0.2,2.2,85,0.00,,,0.00,WUHU216HW,2013-10-08 07:05:00,
2013-10-08 00:10:00,51.3,46.9,30.01,NE,45,1.1,2.2,85,0.00,,,0.00,WUHU216HW,2013-10-08 07:10:00,
2013-10-08 00:15:00,51.3,46.6,30.01,ESE,113,0.2,1.8,84,0.00,,,0.00,WUHU216HW,2013-10-08 07:15:00,
2013-10-08 00:20:00,51.1,46.7,30.01,NW,315,0.4,2.7,85,0.00,,,0.00,WUHU216HW,2013-10-08 07:20:00,
2013-10-08 00:25:00,51.1,46.7,30.01,ENE,68,0.2,2.7,85,0.00,,,0.00,WUHU216HW,2013-10-08 07:25:00,
2013-10-08 00:30:00,51.1,46.7,30.01,NE,45,0.7,2.2,85,0.00,,,0.00,WUHU216HW,2013-10-08 07:30:00,
2013-10-08 00:35:00,51.1,46.7,30.01,North,0,0.9,2.0,85,0.00,,,0.00,WUHU216HW,2013-10-08 07:35:00,
2013-10-08 00:40:00,51.1,46.7,30.01,ENE,68,0.0,2.0,85,0.00,,,0.00,WUHU216HW,2013-10-08 07:40:00,
2013-10-08 00:45:00,50.9,46.5,30.01,ENE,68,0.4,2.0,85,0.00,,,0.00,WUHU216HW,2013-10-08 07:45:00,
2013-10-08 00:50:00,50.9,46.5,30.01,NNE,23,0.9,2.0,85,0.00,,,0.00,WUHU216HW,2013-10-08 07:50:00,
2013-10-08 00:55:00,50.9,46.5,30.01,North,0,0.4,2.9,85,0.00,,,0.00,WUHU216HW,2013-10-08 07:55:00,
2013-10-08 01:00:00,50.8,46.4,30.01,West,270,0.4,2.9,85,0.00,,,0.00,WUHU216HW,2013-10-08 08:00:00,
2013-10-08 01:05:00,50.8,46.4,30.01,NNE,23,0.7,1.3,85,0.00,,,0.00,WUHU216HW,2013-10-08 08:05:00,
2013-10-08 01:11:00,50.8,46.4,30.01,NNW,338,1.3,1.8,85,0.00,,,0.00,WUHU216HW,2013-10-08 08:11:00,
2013-10-08 01:16:00,50.8,46.4,30.01,WSW,248,0.4,2.0,85,0.00,,,0.00,WUHU216HW,2013-10-08 08:16:00,
2013-10-08 01:21:00,50.8,46.4,30.01,ENE,68,0.9,2.5,85,0.00,,,0.00,WUHU216HW,2013-10-08 08:21:00,
2013-10-08 01:26:00,50.8,46.4,30.01,ENE,68,0.4,2.5,85,0.00,,,0.00,WUHU216HW,2013-10-08 08:26:00,
2013-10-08 01:31:00,50.8,46.4,30.01,WNW,293,0.2,2.0,85,0.00,,,0.00,WUHU216HW,2013-10-08 08:31:00,
2013-10-08 01:36:00,50.8,46.4,30.00,NNW,338,0.7,2.0,85,0.00,,,0.00,WUHU216HW,2013-10-08 08:36:00,
2013-10-08 01:41:00,50.6,46.2,30.00,North,0,0.4,1.6,85,0.00,,,0.00,WUHU216HW,2013-10-08 08:41:00,
2013-10-08 01:46:00,50.6,46.2,30.00,NNE,23,0.4,1.6,85,0.00,,,0.00,WUHU216HW,2013-10-08 08:46:00,
2013-10-08 01:51:00,50.4,46.0,30.00,SSE,158,0.9,1.8,85,0.00,,,0.00,WUHU216HW,2013-10-08 08:51:00,
2013-10-08 01:56:00,50.2,45.8,30.00,NE,45,0.4,1.8,85,0.00,,,0.00,WUHU216HW,2013-10-08 08:56:00,
2013-10-08 02:01:00,50.0,45.9,30.00,ESE,113,0.2,1.8,86,0.00,,,0.00,WUHU216HW,2013-10-08 09:01:00,
2013-10-08 02:06:00,50.0,45.9,30.01,West,270,0.4,1.6,86,0.00,,,0.00,WUHU216HW,2013-10-08 09:06:00,
2013-10-08 02:11:00,50.0,45.9,30.01,East,90,0.2,1.6,86,0.00,,,0.00,WUHU216HW,2013-10-08 09:11:00,
2013-10-08 02:16:00,50.0,45.9,30.01,North,0,0.4,1.8,86,0.00,,,0.00,WUHU216HW,2013-10-08 09:16:00,
2013-10-08 02:21:00,50.0,45.9,30.00,ENE,68,0.9,1.8,86,0.00,,,0.00,WUHU216HW,2013-10-08 09:21:00,
2013-10-08 02:26:00,50.0,45.9,30.00,NNE,23,1.1,2.5,86,0.00,,,0.00,WUHU216HW,2013-10-08 09:26:00,
2013-10-08 02:31:00,50.0,45.9,30.00,WNW,293,1.6,2.5,86,0.00,,,0.00,WUHU216HW,2013-10-08 09:31:00,
2013-10-08 02:36:00,50.0,45.6,30.00,West,270,0.4,1.6,85,0.00,,,0.00,WUHU216HW,2013-10-08 09:36:00,
2013-10-08 02:41:00,50.0,45.6,30.00,East,90,1.1,1.8,85,0.00,,,0.00,WUHU216HW,2013-10-08 09:41:00,
2013-10-08 02:46:00,50.2,45.8,30.00,NNE,23,0.7,1.8,85,0.00,,,0.00,WUHU216HW,2013-10-08 09:46:00,
2013-10-08 02:51:00,50.2,45.8,30.00,ENE,68,0.9,2.2,85,0.00,,,0.00,WUHU216HW,2013-10-08 09:51:00,
2013-10-08 02:56:00,50.2,45.8,30.00,ENE,68,1.1,2.2,85,0.00,,,0.00,WUHU216HW,2013-10-08 09:56:00,
2013-10-08 03:01:00,50.2,45.6,30.00,North,0,1.3,2.5,84,0.00,,,0.00,WUHU216HW,2013-10-08 10:01:00,
2013-10-08 03:06:00,50.2,45.6,30.00,WSW,248,1.1,3.4,84,0.00,,,0.00,WUHU216HW,2013-10-08 10:06:00,
2013-10-08 03:11:00,50.2,45.6,30.00,North,0,0.7,3.4,84,0.00,,,0.00,WUHU216HW,2013-10-08 10:11:00,
2013-10-08 03:16:00,50.2,45.6,30.00,ENE,68,0.4,2.0,84,0.00,,,0.00,WUHU216HW,2013-10-08 10:16:00,
2013-10-08 03:21:00,50.2,45.6,30.00,NW,315,0.2,1.8,84,0.00,,,0.00,WUHU216HW,2013-10-08 10:21:00,
2013-10-08 03:26:00,50.2,45.6,30.00,North,0,0.4,1.8,84,0.00,,,0.00,WUHU216HW,2013-10-08 10:26:00,
2013-10-08 03:31:00,50.2,45.6,29.99,North,0,2.0,2.0,84,0.00,,,0.00,WUHU216HW,2013-10-08 10:31:00,
2013-10-08 03:36:00,50.2,45.6,30.00,NE,45,0.4,3.1,84,0.00,,,0.00,WUHU216HW,2013-10-08 10:36:00,
2013-10-08 03:41:00,50.2,45.6,29.99,NW,315,0.7,3.1,84,0.00,,,0.00,WUHU216HW,2013-10-08 10:41:00,
2013-10-08 03:46:00,50.2,45.6,29.99,NE,45,1.1,2.5,84,0.00,,,0.00,WUHU216HW,2013-10-08 10:46:00,
2013-10-08 03:51:00,50.2,45.6,29.99,NE,45,0.0,2.5,84,0.00,,,0.00,WUHU216HW,2013-10-08 10:51:00,
2013-10-08 03:56:00,50.2,45.6,29.99,NNE,23,1.1,2.2,84,0.00,,,0.00,WUHU216HW,2013-10-08 10:56:00,
2013-10-08 04:01:00,50.2,45.6,29.99,West,270,0.4,2.2,84,0.00,,,0.00,WUHU216HW,2013-10-08 11:01:00,
2013-10-08 04:06:00,50.0,45.4,29.99,East,90,1.1,2.0,84,0.00,,,0.00,WUHU216HW,2013-10-08 11:06:00,
2013-10-08 04:11:00,49.9,45.2,29.99,SSE,158,1.1,2.0,84,0.00,,,0.00,WUHU216HW,2013-10-08 11:11:00,
2013-10-08 04:16:00,49.9,45.2,29.99,North,0,0.2,2.5,84,0.00,,,0.00,WUHU216HW,2013-10-08 11:16:00,
2013-10-08 04:21:00,49.7,45.3,29.99,ESE,113,1.3,2.5,85,0.00,,,0.00,WUHU216HW,2013-10-08 11:21:00,
2013-10-08 04:26:00,49.7,45.3,29.99,South,180,1.8,2.5,85,0.00,,,0.00,WUHU216HW,2013-10-08 11:26:00,
2013-10-08 04:31:00,49.7,45.3,29.99,East,90,0.0,2.5,85,0.00,,,0.00,WUHU216HW,2013-10-08 11:31:00,
2013-10-08 04:36:00,49.7,45.3,29.99,North,0,0.2,2.0,85,0.00,,,0.00,WUHU216HW,2013-10-08 11:36:00,
2013-10-08 04:41:00,49.7,45.3,29.99,ENE,68,0.9,1.8,85,0.00,,,0.00,WUHU216HW,2013-10-08 11:41:00,
2013-10-08 04:46:00,49.7,45.3,29.99,NNE,23,1.3,1.6,85,0.00,,,0.00,WUHU216HW,2013-10-08 11:46:00,
2013-10-08 04:51:00,49.7,45.3,29.99,East,90,1.1,1.8,85,0.00,,,0.00,WUHU216HW,2013-10-08 11:51:00,
2013-10-08 04:56:00,49.7,45.3,29.98,NNE,23,1.1,3.8,85,0.00,,,0.00,WUHU216HW,2013-10-08 11:56:00,
2013-10-08 05:01:00,49.9,45.2,29.98,WNW,293,0.0,3.8,84,0.00,,,0.00,WUHU216HW,2013-10-08 12:01:00,
2013-10-08 05:06:00,49.7,45.3,29.98,North,0,0.7,1.8,85,0.00,,,0.00,WUHU216HW,2013-10-08 12:06:00,
2013-10-08 05:11:00,49.9,45.5,29.98,NW,315,1.1,1.8,85,0.00,,,0.00,WUHU216HW,2013-10-08 12:11:00,
2013-10-08 05:16:00,49.9,45.5,29.98,NNE,23,0.2,2.0,85,0.00,,,0.00,WUHU216HW,2013-10-08 12:16:00,
2013-10-08 05:21:00,49.9,45.5,29.98,North,0,0.2,2.0,85,0.00,,,0.00,WUHU216HW,2013-10-08 12:21:00,
2013-10-08 05:26:00,49.9,45.5,29.98,NNE,23,1.1,2.5,85,0.00,,,0.00,WUHU216HW,2013-10-08 12:26:00,
2013-10-08 05:31:00,49.9,45.5,29.98,NNE,23,0.0,2.5,85,0.00,,,0.00,WUHU216HW,2013-10-08 12:31:00,
2013-10-08 05:36:00,49.9,45.5,29.98,ESE,113,0.9,2.2,85,0.00,,,0.00,WUHU216HW,2013-10-08 12:36:00,
2013-10-08 05:41:00,50.0,45.4,29.98,NE,45,0.0,2.0,84,0.00,,,0.00,WUHU216HW,2013-10-08 12:41:00,
2013-10-08 05:46:00,50.0,45.6,29.98,NNE,23,0.0,2.0,85,0.00,,,0.00,WUHU216HW,2013-10-08 12:46:00,
2013-10-08 05:51:00,50.0,45.4,29.97,NE,45,0.4,2.0,84,0.00,,,0.00,WUHU216HW,2013-10-08 12:51:00,
2013-10-08 05:56:00,50.0,45.4,29.97,NNE,23,1.1,1.8,84,0.00,,,0.00,WUHU216HW,2013-10-08 12:56:00,
2013-10-08 06:01:00,50.0,45.4,29.98,East,90,0.0,1.8,84,0.00,,,0.00,WUHU216HW,2013-10-08 13:01:00,
2013-10-08 06:06:00,50.0,45.4,29.98,West,270,0.4,2.0,84,0.00,,,0.00,WUHU216HW,2013-10-08 13:06:00,
2013-10-08 06:11:00,50.0,45.4,29.97,NW,315,0.0,2.0,84,0.00,,,0.00,WUHU216HW,2013-10-08 13:11:00,
2013-10-08 06:16:00,50.0,45.4,29.97,SE,135,0.4,1.8,84,0.00,,,0.00,WUHU216HW,2013-10-08 13:16:00,
2013-10-08 06:21:00,50.0,45.4,29.97,ESE,113,0.0,1.1,84,0.00,,,0.00,WUHU216HW,2013-10-08 13:21:00,
2013-10-08 06:26:00,50.0,45.4,29.97,NW,315,0.7,1.3,84,0.00,,,0.00,WUHU216HW,2013-10-08 13:26:00,
2013-10-08 06:31:00,50.0,45.4,29.98,NNW,338,0.4,1.8,84,0.00,,,0.00,WUHU216HW,2013-10-08 13:31:00,
2013-10-08 06:36:00,50.0,45.4,29.98,East,90,0.0,1.8,84,0.00,,,0.00,WUHU216HW,2013-10-08 13:36:00,
2013-10-08 06:41:00,50.0,45.4,29.97,ENE,68,1.1,1.3,84,0.00,,,0.00,WUHU216HW,2013-10-08 13:41:00,
2013-10-08 06:46:00,50.0,45.4,29.97,East,90,0.2,1.3,84,0.00,,,0.00,WUHU216HW,2013-10-08 13:46:00,
2013-10-08 06:51:00,50.0,45.4,29.97,NE,45,0.2,1.1,84,0.00,,,0.00,WUHU216HW,2013-10-08 13:51:00,
2013-10-08 06:56:00,50.0,45.4,29.97,SW,225,0.4,1.6,84,0.00,,,0.00,WUHU216HW,2013-10-08 13:56:00,
2013-10-08 07:01:00,50.0,45.4,29.97,NNW,338,0.4,1.6,84,0.00,,,0.00,WUHU216HW,2013-10-08 14:01:00,
2013-10-08 07:06:00,50.0,45.4,29.97,NW,315,0.0,1.1,84,0.00,,,0.00,WUHU216HW,2013-10-08 14:06:00,
2013-10-08 07:11:00,50.0,45.4,29.97,North,0,0.0,0.9,84,0.00,,,0.00,WUHU216HW,2013-10-08 14:11:00,
2013-10-08 07:16:00,50.0,45.4,29.97,North,0,0.0,0.7,84,0.00,,,0.00,WUHU216HW,2013-10-08 14:16:00,
2013-10-08 07:21:00,50.0,45.4,29.97,East,90,0.9,1.6,84,0.00,,,0.00,WUHU216HW,2013-10-08 14:21:00,
2013-10-08 07:26:00,50.0,45.4,29.97,NW,315,0.0,1.6,84,0.00,,,0.00,WUHU216HW,2013-10-08 14:26:00,
2013-10-08 07:31:00,50.0,45.4,29.97,ENE,68,0.4,1.3,84,0.00,,,0.00,WUHU216HW,2013-10-08 14:31:00,
2013-10-08 07:36:00,50.0,45.4,29.97,NW,315,0.4,1.3,84,0.00,,,0.00,WUHU216HW,2013-10-08 14:36:00,
2013-10-08 07:41:00,50.0,45.4,29.97,ENE,68,0.0,0.9,84,0.00,,,0.00,WUHU216HW,2013-10-08 14:41:00,
2013-10-08 07:46:00,50.0,45.4,29.97,SW,225,0.0,0.9,84,0.00,,,0.00,WUHU216HW,2013-10-08 14:46:00,
2013-10-08 07:51:00,50.0,45.4,29.97,North,0,0.0,0.9,84,0.00,,,0.00,WUHU216HW,2013-10-08 14:51:00,
2013-10-08 07:56:00,50.0,45.4,29.97,NNE,23,0.0,1.8,84,0.00,,,0.00,WUHU216HW,2013-10-08 14:56:00,
2013-10-08 08:01:00,50.0,45.4,29.97,SSW,203,0.4,1.8,84,0.00,,,0.00,WUHU216HW,2013-10-08 15:01:00,
2013-10-08 08:06:00,50.0,45.4,29.97,ENE,68,0.4,1.1,84,0.00,,,0.00,WUHU216HW,2013-10-08 15:06:00,
2013-10-08 08:11:00,50.0,45.4,29.97,East,90,0.0,1.3,84,0.00,,,0.00,WUHU216HW,2013-10-08 15:11:00,
2013-10-08 08:16:00,50.2,45.6,29.97,NW,315,0.0,1.3,84,0.00,,,0.00,WUHU216HW,2013-10-08 15:16:00,
2013-10-08 08:21:00,50.4,45.7,29.97,NW,315,0.9,1.3,84,0.00,,,0.00,WUHU216HW,2013-10-08 15:21:00,
2013-10-08 08:26:00,50.4,45.7,29.97,NE,45,0.4,1.3,84,0.00,,,0.00,WUHU216HW,2013-10-08 15:26:00,
2013-10-08 08:31:00,50.4,45.7,29.97,North,0,0.0,1.3,84,0.00,,,0.00,WUHU216HW,2013-10-08 15:31:00,
2013-10-08 08:36:00,50.4,45.7,29.97,NNE,23,0.0,1.3,84,0.00,,,0.00,WUHU216HW,2013-10-08 15:36:00,
2013-10-08 08:41:00,50.6,45.9,29.97,NNW,338,0.0,1.1,84,0.00,,,0.00,WUHU216HW,2013-10-08 15:41:00,
2013-10-08 08:46:00,50.8,46.1,29.97,NE,45,0.2,1.8,84,0.00,,,0.00,WUHU216HW,2013-10-08 15:46:00,
2013-10-08 08:51:00,50.8,46.1,29.97,West,270,0.4,1.8,84,0.00,,,0.00,WUHU216HW,2013-10-08 15:51:00,
2013-10-08 08:56:00,50.8,46.1,29.97,West,270,0.2,1.8,84,0.00,,,0.00,WUHU216HW,2013-10-08 15:56:00,
2013-10-08 09:01:00,50.9,45.9,29.97,WSW,248,0.0,1.8,83,0.00,,,0.00,WUHU216HW,2013-10-08 16:01:00,
2013-10-08 09:06:00,51.1,46.1,29.96,ENE,68,0.4,1.1,83,0.00,,,0.00,WUHU216HW,2013-10-08 16:06:00,
2013-10-08 09:11:00,51.5,46.4,29.96,ESE,113,0.0,1.1,83,0.00,,,0.00,WUHU216HW,2013-10-08 16:11:00,
2013-10-08 09:16:00,51.5,46.4,29.96,WNW,293,0.0,1.1,83,0.00,,,0.00,WUHU216HW,2013-10-08 16:16:00,
2013-10-08 09:21:00,51.5,46.4,29.96,West,270,0.0,1.6,83,0.00,,,0.00,WUHU216HW,2013-10-08 16:21:00,
2013-10-08 09:26:00,51.7,46.4,29.96,ENE,68,0.2,1.6,82,0.00,,,0.00,WUHU216HW,2013-10-08 16:26:00,
2013-10-08 09:31:00,51.7,46.4,29.96,North,0,0.0,1.1,82,0.00,,,0.00,WUHU216HW,2013-10-08 16:31:00,
2013-10-08 09:36:00,51.7,46.4,29.96,East,90,0.7,1.3,82,0.00,,,0.00,WUHU216HW,2013-10-08 16:36:00,
2013-10-08 09:41:00,51.8,46.5,29.96,North,0,0.0,1.3,82,0.00,,,0.00,WUHU216HW,2013-10-08 16:41:00,
2013-10-08 09:46:00,52.0,46.7,29.96,ESE,113,0.9,1.1,82,0.00,,,0.00,WUHU216HW,2013-10-08 16:46:00,
2013-10-08 09:51:00,52.0,46.7,29.96,WNW,293,0.4,1.1,82,0.00,,,0.00,WUHU216HW,2013-10-08 16:51:00,
2013-10-08 09:56:00,52.0,46.7,29.96,NNE,23,0.2,1.1,82,0.00,,,0.00,WUHU216HW,2013-10-08 16:56:00,
2013-10-08 10:01:00,52.2,46.9,29.96,NE,45,0.4,1.1,82,0.00,,,0.00,WUHU216HW,2013-10-08 17:01:00,
2013-10-08 10:07:00,52.2,46.5,29.96,NW,315,0.0,1.1,81,0.00,,,0.00,WUHU216HW,2013-10-08 17:07:00,
2013-10-08 10:12:00,52.4,46.7,29.96,NNW,338,0.0,1.1,81,0.00,,,0.00,WUHU216HW,2013-10-08 17:12:00,
2013-10-08 10:17:00,52.4,46.4,29.96,North,0,0.2,1.6,80,0.00,,,0.00,WUHU216HW,2013-10-08 17:17:00,
2013-10-08 10:22:00,52.6,46.6,29.96,SSE,158,0.0,1.6,80,0.00,,,0.00,WUHU216HW,2013-10-08 17:22:00,
2013-10-08 10:27:00,52.6,46.6,29.96,NNE,23,0.4,0.7,80,0.00,,,0.00,WUHU216HW,2013-10-08 17:27:00,
2013-10-08 10:32:00,52.2,46.3,29.96,East,90,0.0,0.7,80,0.00,,,0.00,WUHU216HW,2013-10-08 17:32:00,
2013-10-08 10:37:00,52.6,46.6,29.96,NW,315,0.2,0.7,80,0.00,,,0.00,WUHU216HW,2013-10-08 17:37:00,
2013-10-08 10:42:00,52.7,46.8,29.96,NW,315,0.0,0.7,80,0.00,,,0.00,WUHU216HW,2013-10-08 17:42:00,
2013-10-08 10:47:00,52.9,47.0,29.96,NE,45,0.2,0.7,80,0.00,,,0.00,WUHU216HW,2013-10-08 17:47:00,
2013-10-08 10:52:00,53.1,47.2,29.96,SSW,203,0.0,0.9,80,0.00,,,0.00,WUHU216HW,2013-10-08 17:52:00,
2013-10-08 10:57:00,53.1,47.2,29.96,ESE,113,0.0,0.9,80,0.00,,,0.00,WUHU216HW,2013-10-08 17:57:00,
2013-10-08 11:02:00,52.7,46.8,29.97,East,90,0.7,1.1,80,0.01,,,0.01,WUHU216HW,2013-10-08 18:02:00,
2013-10-08 11:07:00,51.8,46.5,29.98,WSW,248,2.2,2.9,82,0.05,,,0.05,WUHU216HW,2013-10-08 18:07:00,
2013-10-08 11:12:00,49.7,44.0,29.97,West,270,0.2,4.0,81,0.14,,,0.14,WUHU216HW,2013-10-08 18:12:00,
2013-10-08 11:17:00,48.2,43.3,29.97,East,90,0.4,4.0,83,0.16,,,0.16,WUHU216HW,2013-10-08 18:17:00,
2013-10-08 11:22:00,47.7,43.1,29.97,North,0,0.0,0.9,84,0.18,,,0.18,WUHU216HW,2013-10-08 18:22:00,
2013-10-08 11:27:00,47.3,43.0,29.98,WSW,248,0.2,1.3,85,0.18,,,0.18,WUHU216HW,2013-10-08 18:27:00,
2013-10-08 11:32:00,47.3,43.0,29.98,SW,225,0.2,1.3,85,0.18,,,0.18,WUHU216HW,2013-10-08 18:32:00,
2013-10-08 11:37:00,47.2,42.9,29.98,WNW,293,0.0,0.7,85,0.19,,,0.19,WUHU216HW,2013-10-08 18:37:00,
2013-10-08 11:42:00,47.2,43.2,29.98,West,270,0.4,1.8,86,0.20,,,0.20,WUHU216HW,2013-10-08 18:42:00,
2013-10-08 11:47:00,47.0,43.0,29.97,North,0,0.0,1.8,86,0.21,,,0.21,WUHU216HW,2013-10-08 18:47:00,
2013-10-08 11:52:00,46.8,42.8,29.97,North,0,0.0,0.4,86,0.22,,,0.22,WUHU216HW,2013-10-08 18:52:00,
2013-10-08 11:57:00,46.8,43.2,29.97,East,90,0.0,0.0,87,0.21,,,0.22,WUHU216HW,2013-10-08 18:57:00,
2013-10-08 12:02:00,46.8,43.2,29.97,ENE,68,0.0,0.0,87,0.21,,,0.23,WUHU216HW,2013-10-08 19:02:00,
2013-10-08 12:07:00,46.8,43.2,29.97,ENE,68,0.0,0.0,87,0.17,,,0.23,WUHU216HW,2013-10-08 19:07:00,
2013-10-08 12:12:00,46.8,43.5,29.97,East,90,0.2,0.2,88,0.08,,,0.24,WUHU216HW,2013-10-08 19:12:00,
2013-10-08 12:17:00,46.8,43.5,29.97,East,90,0.0,0.4,88,0.07,,,0.24,WUHU216HW,2013-10-08 19:17:00,
2013-10-08 12:22:00,47.2,44.2,29.98,West,270,0.2,0.7,89,0.06,,,0.24,WUHU216HW,2013-10-08 19:22:00,
2013-10-08 12:27:00,47.0,44.3,29.98,NE,45,0.4,1.8,90,0.06,,,0.24,WUHU216HW,2013-10-08 19:27:00,
2013-10-08 12:32:00,47.2,44.5,29.98,NW,315,0.0,1.8,90,0.05,,,0.24,WUHU216HW,2013-10-08 19:32:00,
2013-10-08 12:37:00,47.3,44.6,29.98,NE,45,0.0,0.4,90,0.04,,,0.24,WUHU216HW,2013-10-08 19:37:00,
2013-10-08 12:42:00,47.5,44.8,29.97,NNW,338,0.0,0.4,90,0.04,,,0.24,WUHU216HW,2013-10-08 19:42:00,
2013-10-08 12:47:00,47.9,45.2,29.98,NE,45,0.4,0.4,90,0.03,,,0.24,WUHU216HW,2013-10-08 19:47:00,
2013-10-08 12:52:00,48.2,45.2,29.98,NNE,23,0.0,0.7,89,0.02,,,0.24,WUHU216HW,2013-10-08 19:52:00,
2013-10-08 12:57:00,48.4,45.4,29.97,NNE,23,0.9,0.9,89,0.02,,,0.24,WUHU216HW,2013-10-08 19:57:00,
2013-10-08 13:02:00,48.8,45.7,29.97,West,270,0.0,0.9,89,0.01,,,0.24,WUHU216HW,2013-10-08 20:02:00,
2013-10-08 13:07:00,49.1,45.7,29.97,ENE,68,0.0,0.9,88,0.01,,,0.24,WUHU216HW,2013-10-08 20:07:00,
2013-10-08 13:12:00,49.5,46.1,29.97,South,180,0.4,0.7,88,0.00,,,0.24,WUHU216HW,2013-10-08 20:12:00,
2013-10-08 13:17:00,49.9,46.4,29.97,ESE,113,0.0,0.7,88,0.00,,,0.24,WUHU216HW,2013-10-08 20:17:00,
2013-10-08 13:22:00,50.6,46.8,29.97,SSE,158,1.1,1.1,87,0.00,,,0.24,WUHU216HW,2013-10-08 20:22:00,
2013-10-08 13:27:00,50.8,46.6,29.96,WSW,248,0.4,1.6,86,0.00,,,0.24,WUHU216HW,2013-10-08 20:27:00,
2013-10-08 13:32:00,50.6,46.4,29.96,WSW,248,0.2,1.6,86,0.00,,,0.24,WUHU216HW,2013-10-08 20:32:00,
2013-10-08 13:37:00,50.6,46.8,29.97,South,180,0.4,0.7,87,0.01,,,0.25,WUHU216HW,2013-10-08 20:37:00,
2013-10-08 13:42:00,50.6,46.4,29.97,ENE,68,0.0,0.7,86,0.01,,,0.25,WUHU216HW,2013-10-08 20:42:00,
2013-10-08 13:47:00,50.6,46.4,29.96,SSW,203,0.0,1.6,86,0.01,,,0.25,WUHU216HW,2013-10-08 20:47:00,
2013-10-08 13:52:00,50.4,46.3,29.97,NNW,338,0.0,1.6,86,0.01,,,0.25,WUHU216HW,2013-10-08 20:52:00,
2013-10-08 13:57:00,50.6,46.4,29.96,East,90,0.0,0.7,86,0.01,,,0.25,WUHU216HW,2013-10-08 20:57:00,
2013-10-08 14:02:00,50.6,46.2,29.96,SSW,203,0.0,1.3,85,0.01,,,0.25,WUHU216HW,2013-10-08 21:02:00,
2013-10-08 14:07:00,50.8,46.4,29.96,East,90,0.0,1.3,85,0.01,,,0.25,WUHU216HW,2013-10-08 21:07:00,
2013-10-08 14:12:00,50.9,46.5,29.96,ENE,68,0.2,0.4,85,0.01,,,0.25,WUHU216HW,2013-10-08 21:12:00,
2013-10-08 14:17:00,50.9,46.8,29.96,ENE,68,0.4,0.7,86,0.01,,,0.25,WUHU216HW,2013-10-08 21:17:00,
2013-10-08 14:22:00,51.1,46.7,29.96,East,90,0.0,0.7,85,0.01,,,0.25,WUHU216HW,2013-10-08 21:22:00,
2013-10-08 14:27:00,51.5,47.1,29.96,NE,45,0.4,0.7,85,0.01,,,0.25,WUHU216HW,2013-10-08 21:27:00,
2013-10-08 14:32:00,51.7,47.3,29.97,WNW,293,0.7,1.1,85,0.00,,,0.25,WUHU216HW,2013-10-08 21:32:00,
2013-10-08 14:37:00,51.7,47.3,29.96,West,270,0.4,1.1,85,0.00,,,0.25,WUHU216HW,2013-10-08 21:37:00,
2013-10-08 14:42:00,51.8,47.7,29.97,North,0,0.2,1.1,86,0.00,,,0.25,WUHU216HW,2013-10-08 21:42:00,
2013-10-08 14:47:00,52.4,48.0,29.96,NW,315,1.1,1.1,85,0.00,,,0.25,WUHU216HW,2013-10-08 21:47:00,
2013-10-08 14:52:00,52.6,47.5,29.97,WSW,248,1.8,1.8,83,0.00,,,0.25,WUHU216HW,2013-10-08 21:52:00,
2013-10-08 14:57:00,53.1,47.8,29.96,WSW,248,1.1,1.8,82,0.00,,,0.25,WUHU216HW,2013-10-08 21:57:00,
2013-10-08 15:02:00,53.6,47.7,29.96,East,90,0.7,1.8,80,0.00,,,0.25,WUHU216HW,2013-10-08 22:02:00,
2013-10-08 15:07:00,53.8,46.1,29.96,NE,45,0.4,1.8,75,0.00,,,0.25,WUHU216HW,2013-10-08 22:07:00,
2013-10-08 15:12:00,54.0,46.6,29.97,SW,225,1.6,1.8,76,0.00,,,0.25,WUHU216HW,2013-10-08 22:12:00,
2013-10-08 15:17:00,53.3,46.3,29.97,SW,225,1.1,2.0,77,0.01,,,0.26,WUHU216HW,2013-10-08 22:17:00,
2013-10-08 15:22:00,52.0,46.1,29.98,SW,225,0.4,2.0,80,0.02,,,0.27,WUHU216HW,2013-10-08 22:22:00,
2013-10-08 15:27:00,51.5,46.2,29.98,West,270,0.4,1.8,82,0.02,,,0.27,WUHU216HW,2013-10-08 22:27:00,
2013-10-08 15:32:00,51.7,46.4,29.97,ESE,113,0.0,0.4,82,0.02,,,0.27,WUHU216HW,2013-10-08 22:32:00,
2013-10-08 15:37:00,51.8,46.5,29.98,North,0,0.2,0.4,82,0.02,,,0.27,WUHU216HW,2013-10-08 22:37:00,
2013-10-08 15:42:00,52.2,46.9,29.98,ENE,68,0.0,0.4,82,0.02,,,0.27,WUHU216HW,2013-10-08 22:42:00,
2013-10-08 15:47:00,52.4,46.7,29.98,SE,135,0.0,0.7,81,0.02,,,0.27,WUHU216HW,2013-10-08 22:47:00,
2013-10-08 15:52:00,52.4,47.1,29.98,NE,45,0.0,0.7,82,0.02,,,0.27,WUHU216HW,2013-10-08 22:52:00,
2013-10-08 15:57:00,52.6,47.3,29.98,East,90,0.0,0.4,82,0.02,,,0.27,WUHU216HW,2013-10-08 22:57:00,
2013-10-08 16:02:00,52.6,47.3,29.98,East,90,0.0,0.4,82,0.02,,,0.27,WUHU216HW,2013-10-08 23:02:00,
2013-10-08 16:08:00,52.6,47.3,29.98,East,90,0.0,0.2,82,0.02,,,0.27,WUHU216HW,2013-10-08 23:08:00,
2013-10-08 16:13:00,52.4,47.1,29.98,East,90,0.0,0.2,82,0.02,,,0.27,WUHU216HW,2013-10-08 23:13:00,
2013-10-08 16:18:00,52.4,47.3,29.98,East,90,0.0,0.0,83,0.01,,,0.27,WUHU216HW,2013-10-08 23:18:00,
2013-10-08 16:23:00,52.7,47.7,29.98,East,90,0.0,0.0,83,0.00,,,0.27,WUHU216HW,2013-10-08 23:23:00,
2013-10-08 16:28:00,52.9,47.6,29.98,NE,45,0.0,0.0,82,0.00,,,0.27,WUHU216HW,2013-10-08 23:28:00,
2013-10-08 16:33:00,53.1,48.1,29.98,NNE,23,0.0,0.0,83,0.00,,,0.27,WUHU216HW,2013-10-08 23:33:00,
2013-10-08 16:39:00,53.3,48.0,29.98,West,270,0.0,0.9,82,0.00,,,0.27,WUHU216HW,2013-10-08 23:39:00,
2013-10-08 16:44:00,53.5,47.5,29.99,SSW,203,0.4,1.3,80,0.00,,,0.27,WUHU216HW,2013-10-08 23:44:00,
2013-10-08 16:50:00,53.6,47.3,29.99,SSW,203,0.2,1.3,79,0.00,,,0.27,WUHU216HW,2013-10-08 23:50:00,
2013-10-08 16:55:00,53.5,47.2,29.98,SE,135,0.4,2.2,79,0.00,,,0.27,WUHU216HW,2013-10-08 23:55:00,
2013-10-08 17:00:00,53.3,46.6,29.98,NE,45,0.2,2.2,78,0.00,,,0.27,WUHU216HW,2013-10-09 00:00:00,
2013-10-08 17:05:00,53.1,45.7,29.98,South,180,1.1,1.6,76,0.00,,,0.27,WUHU216HW,2013-10-09 00:05:00,
2013-10-08 17:10:00,53.1,45.7,29.99,SW,225,1.1,2.7,76,0.00,,,0.27,WUHU216HW,2013-10-09 00:10:00,
2013-10-08 17:15:00,52.9,44.8,29.98,WSW,248,1.1,2.7,74,0.00,,,0.27,WUHU216HW,2013-10-09 00:15:00,
2013-10-08 17:20:00,52.9,44.6,29.99,WSW,248,1.3,2.7,73,0.00,,,0.27,WUHU216HW,2013-10-09 00:20:00,
2013-10-08 17:25:00,53.1,44.6,29.98,ESE,113,0.9,2.9,73,0.00,,,0.27,WUHU216HW,2013-10-09 00:25:00,
2013-10-08 17:30:00,52.9,43.8,29.98,South,180,1.8,4.0,71,0.00,,,0.27,WUHU216HW,2013-10-09 00:30:00,
2013-10-08 17:35:00,53.1,43.2,29.98,SW,225,3.6,4.7,69,0.00,,,0.27,WUHU216HW,2013-10-09 00:35:00,
2013-10-08 17:40:00,52.9,43.0,29.98,WSW,248,1.3,4.7,69,0.00,,,0.27,WUHU216HW,2013-10-09 00:40:00,
2013-10-08 17:45:00,52.9,43.8,29.98,SW,225,1.1,3.6,71,0.00,,,0.27,WUHU216HW,2013-10-09 00:45:00,
2013-10-08 17:50:00,52.7,43.3,29.99,South,180,1.3,2.9,70,0.00,,,0.27,WUHU216HW,2013-10-09 00:50:00,
2013-10-08 17:55:00,52.6,43.5,29.99,ESE,113,1.1,2.0,71,0.00,,,0.27,WUHU216HW,2013-10-09 00:55:00,
2013-10-08 18:00:00,52.7,44.4,29.99,WSW,248,0.0,1.8,73,0.00,,,0.27,WUHU216HW,2013-10-09 01:00:00,
2013-10-08 18:05:00,52.6,44.2,30.00,South,180,0.4,1.8,73,0.00,,,0.27,WUHU216HW,2013-10-09 01:05:00,
2013-10-08 18:10:00,52.6,44.2,29.99,SW,225,0.9,1.8,73,0.00,,,0.27,WUHU216HW,2013-10-09 01:10:00,
2013-10-08 18:15:00,52.6,44.2,30.00,SW,225,1.8,2.5,73,0.00,,,0.27,WUHU216HW,2013-10-09 01:15:00,
2013-10-08 18:20:00,52.4,44.0,30.00,SSW,203,1.1,2.5,73,0.00,,,0.27,WUHU216HW,2013-10-09 01:20:00,
2013-10-08 18:25:00,52.2,44.6,30.00,South,180,0.0,2.0,75,0.00,,,0.27,WUHU216HW,2013-10-09 01:25:00,
2013-10-08 18:30:00,51.8,45.2,30.00,East,90,0.0,1.1,78,0.00,,,0.27,WUHU216HW,2013-10-09 01:30:00,
2013-10-08 18:35:00,51.1,44.5,30.01,East,90,0.0,0.4,78,0.00,,,0.27,WUHU216HW,2013-10-09 01:35:00,
2013-10-08 18:40:00,50.4,43.7,30.01,East,90,0.0,0.4,78,0.00,,,0.27,WUHU216HW,2013-10-09 01:40:00,
2013-10-08 18:45:00,49.9,43.9,30.01,East,90,0.0,0.4,80,0.00,,,0.27,WUHU216HW,2013-10-09 01:45:00,
2013-10-08 18:50:00,49.3,43.7,30.01,East,90,0.0,0.0,81,0.00,,,0.27,WUHU216HW,2013-10-09 01:50:00,
2013-10-08 18:55:00,48.8,43.5,30.01,East,90,0.0,0.0,82,0.00,,,0.27,WUHU216HW,2013-10-09 01:55:00,
2013-10-08 19:00:00,48.6,43.3,30.02,East,90,0.0,0.0,82,0.00,,,0.27,WUHU216HW,2013-10-09 02:00:00,
2013-10-08 19:05:00,48.4,43.5,30.02,East,90,0.0,0.0,83,0.00,,,0.27,WUHU216HW,2013-10-09 02:05:00,
2013-10-08 19:10:00,48.2,43.3,30.02,East,90,0.0,0.0,83,0.00,,,0.27,WUHU216HW,2013-10-09 02:10:00,
2013-10-08 19:15:00,48.2,43.3,30.02,East,90,0.0,0.0,83,0.00,,,0.27,WUHU216HW,2013-10-09 02:15:00,
2013-10-08 19:20:00,48.2,43.3,30.02,East,90,0.0,0.0,83,0.00,,,0.27,WUHU216HW,2013-10-09 02:20:00,
2013-10-08 19:25:00,48.2,43.6,30.02,East,90,0.0,0.0,84,0.00,,,0.27,WUHU216HW,2013-10-09 02:25:00,
2013-10-08 19:30:00,48.4,44.1,30.02,East,90,0.0,0.0,85,0.00,,,0.27,WUHU216HW,2013-10-09 02:30:00,
2013-10-08 19:35:00,48.2,43.9,30.02,East,90,0.0,0.0,85,0.00,,,0.27,WUHU216HW,2013-10-09 02:35:00,
2013-10-08 19:40:00,48.2,43.9,30.02,ESE,113,0.0,0.0,85,0.00,,,0.27,WUHU216HW,2013-10-09 02:40:00,
2013-10-08 19:45:00,47.9,43.6,30.03,ENE,68,0.0,0.0,85,0.00,,,0.27,WUHU216HW,2013-10-09 02:45:00,
2013-10-08 19:50:00,47.7,43.4,30.03,ENE,68,0.0,0.0,85,0.00,,,0.27,WUHU216HW,2013-10-09 02:50:00,
2013-10-08 19:55:00,47.5,43.6,30.03,ENE,68,0.0,0.0,86,0.00,,,0.27,WUHU216HW,2013-10-09 02:55:00,
2013-10-08 20:00:00,47.2,43.2,30.03,ENE,68,0.0,0.0,86,0.00,,,0.27,WUHU216HW,2013-10-09 03:00:00,
2013-10-08 20:05:00,47.2,43.6,30.03,East,90,0.0,0.4,87,0.00,,,0.27,WUHU216HW,2013-10-09 03:05:00,
2013-10-08 20:10:00,47.2,43.6,30.03,East,90,0.0,0.4,87,0.00,,,0.27,WUHU216HW,2013-10-09 03:10:00,
2013-10-08 20:15:00,47.2,43.6,30.03,ENE,68,0.0,0.0,87,0.00,,,0.27,WUHU216HW,2013-10-09 03:15:00,
2013-10-08 20:20:00,47.2,43.8,30.03,ENE,68,0.0,0.0,88,0.00,,,0.27,WUHU216HW,2013-10-09 03:20:00,
2013-10-08 20:25:00,47.2,43.8,30.03,ENE,68,0.0,0.0,88,0.00,,,0.27,WUHU216HW,2013-10-09 03:25:00,
2013-10-08 20:30:00,47.2,43.8,30.03,ENE,68,0.0,0.0,88,0.00,,,0.27,WUHU216HW,2013-10-09 03:30:00,
2013-10-08 20:35:00,47.2,43.8,30.03,ENE,68,0.0,0.0,88,0.00,,,0.27,WUHU216HW,2013-10-09 03:35:00,
2013-10-08 20:40:00,47.2,43.8,30.03,ENE,68,0.0,0.0,88,0.00,,,0.27,WUHU216HW,2013-10-09 03:40:00,
2013-10-08 20:46:00,47.2,43.8,30.03,ENE,68,0.0,0.0,88,0.00,,,0.27,WUHU216HW,2013-10-09 03:46:00,
2013-10-08 20:51:00,47.2,44.2,30.03,South,180,0.0,0.0,89,0.00,,,0.27,WUHU216HW,2013-10-09 03:51:00,
2013-10-08 20:56:00,47.2,43.8,30.03,SE,135,0.0,0.0,88,0.00,,,0.27,WUHU216HW,2013-10-09 03:56:00,
2013-10-08 21:01:00,47.2,43.8,30.04,ESE,113,0.0,0.0,88,0.00,,,0.27,WUHU216HW,2013-10-09 04:01:00,
2013-10-08 21:02:00,47.2,43.8,30.03,ESE,113,0.0,0.0,88,0.00,,,0.27,WUHU216HW,2013-10-09 04:02:00,
2013-10-08 21:07:00,47.2,43.8,30.04,SSW,203,0.0,0.0,88,0.00,,,0.27,WUHU216HW,2013-10-09 04:07:00,
2013-10-08 21:12:00,47.2,43.8,30.04,East,90,0.2,0.2,88,0.00,,,0.27,WUHU216HW,2013-10-09 04:12:00,
2013-10-08 21:17:00,46.8,43.5,30.05,ENE,68,0.0,0.4,88,0.00,,,0.27,WUHU216HW,2013-10-09 04:17:00,
2013-10-08 21:22:00,46.8,43.8,30.05,ESE,113,0.0,0.4,89,0.00,,,0.27,WUHU216HW,2013-10-09 04:22:00,
2013-10-08 21:27:00,46.6,43.7,30.05,NNE,23,0.0,0.2,89,0.00,,,0.27,WUHU216HW,2013-10-09 04:27:00,
2013-10-08 21:32:00,46.4,43.5,30.05,East,90,0.0,0.4,89,0.00,,,0.27,WUHU216HW,2013-10-09 04:32:00,
2013-10-08 21:37:00,46.4,43.5,30.05,East,90,0.0,0.4,89,0.00,,,0.27,WUHU216HW,2013-10-09 04:37:00,
2013-10-08 21:42:00,46.3,43.6,30.05,East,90,0.4,0.4,90,0.00,,,0.27,WUHU216HW,2013-10-09 04:42:00,
2013-10-08 21:47:00,46.1,43.4,30.05,East,90,0.0,0.4,90,0.00,,,0.27,WUHU216HW,2013-10-09 04:47:00,
2013-10-08 21:52:00,45.9,43.2,30.05,East,90,0.0,0.4,90,0.00,,,0.27,WUHU216HW,2013-10-09 04:52:00,
2013-10-08 21:57:00,45.7,43.0,30.05,ENE,68,0.0,0.0,90,0.00,,,0.27,WUHU216HW,2013-10-09 04:57:00,
2013-10-08 22:02:00,45.4,42.7,30.06,East,90,0.0,0.0,90,0.00,,,0.27,WUHU216HW,2013-10-09 05:02:00,
2013-10-08 22:07:00,45.2,42.5,30.06,East,90,0.0,0.0,90,0.00,,,0.27,WUHU216HW,2013-10-09 05:07:00,
2013-10-08 22:12:00,45.0,42.3,30.06,East,90,0.0,0.0,90,0.00,,,0.27,WUHU216HW,2013-10-09 05:12:00,
2013-10-08 22:17:00,44.6,41.9,30.06,NE,45,0.0,0.0,90,0.00,,,0.27,WUHU216HW,2013-10-09 05:17:00,
2013-10-08 22:22:00,44.5,41.8,30.06,East,90,0.0,0.0,90,0.00,,,0.27,WUHU216HW,2013-10-09 05:22:00,
2013-10-08 22:27:00,44.3,41.6,30.06,East,90,0.0,0.0,90,0.00,,,0.27,WUHU216HW,2013-10-09 05:27:00,
2013-10-08 22:32:00,44.1,41.4,30.06,East,90,0.0,0.4,90,0.00,,,0.27,WUHU216HW,2013-10-09 05:32:00,
2013-10-08 22:37:00,43.9,41.2,30.06,East,90,0.0,0.4,90,0.00,,,0.27,WUHU216HW,2013-10-09 05:37:00,
2013-10-08 22:42:00,43.9,41.2,30.06,East,90,0.0,0.0,90,0.00,,,0.27,WUHU216HW,2013-10-09 05:42:00,
2013-10-08 22:47:00,43.7,41.0,30.06,East,90,0.2,0.2,90,0.00,,,0.27,WUHU216HW,2013-10-09 05:47:00,
2013-10-08 22:52:00,43.6,40.9,30.06,ENE,68,0.0,0.2,90,0.00,,,0.27,WUHU216HW,2013-10-09 05:52:00,
2013-10-08 22:57:00,43.6,40.9,30.06,ENE,68,0.0,0.2,90,0.00,,,0.27,WUHU216HW,2013-10-09 05:57:00,
2013-10-08 23:02:00,43.2,40.5,30.07,ENE,68,0.0,0.0,90,0.00,,,0.27,WUHU216HW,2013-10-09 06:02:00,
2013-10-08 23:07:00,43.2,40.5,30.07,ENE,68,0.0,0.0,90,0.00,,,0.27,WUHU216HW,2013-10-09 06:07:00,
2013-10-08 23:12:00,43.0,40.3,30.07,ENE,68,0.0,0.0,90,0.00,,,0.27,WUHU216HW,2013-10-09 06:12:00,
2013-10-08 23:17:00,43.0,40.3,30.07,East,90,0.0,0.0,90,0.00,,,0.27,WUHU216HW,2013-10-09 06:17:00,
2013-10-08 23:22:00,42.8,40.1,30.07,East,90,0.0,0.0,90,0.00,,,0.27,WUHU216HW,2013-10-09 06:22:00,
2013-10-08 23:27:00,42.7,40.0,30.06,East,90,0.0,0.0,90,0.00,,,0.27,WUHU216HW,2013-10-09 06:27:00,
2013-10-08 23:32:00,42.5,40.1,30.07,ENE,68,0.0,0.0,91,0.00,,,0.27,WUHU216HW,2013-10-09 06:32:00,
2013-10-08 23:37:00,42.3,39.9,30.07,ESE,113,0.0,0.0,91,0.00,,,0.27,WUHU216HW,2013-10-09 06:37:00,
2013-10-08 23:42:00,42.3,39.9,30.06,ESE,113,0.0,0.0,91,0.00,,,0.27,WUHU216HW,2013-10-09 06:42:00,
2013-10-08 23:47:00,42.1,39.7,30.07,SE,135,0.0,0.0,91,0.00,,,0.27,WUHU216HW,2013-10-09 06:47:00,
2013-10-08 23:52:00,42.1,39.7,30.07,ESE,113,0.0,0.0,91,0.00,,,0.27,WUHU216HW,2013-10-09 06:52:00,
2013-10-08 23:57:00,41.9,39.5,30.07,ESE,113,0.0,0.0,91,0.00,,,0.27,WUHU216HW,2013-10-09 06:57:00,